This is the latest recevied weather packets stored in our database for station/object KJ4AJP. If no packets are shown the sender has not sent any weather packets the latest 10 day(s).
| Time | Temp. | Humidity | Pressure | Rain* | Wind** | Luminosity | Snow |
|---|---|---|---|---|---|---|---|
| 1777831157 | 19.44° C | 40% | 1020.1 hPa | 0 mm | - | 800 W/m² | - |
| 1777830855 | 19.44° C | 38% | 1020.3 hPa | 0 mm | - | 802 W/m² | - |
| 1777830550 | 20° C | 37% | 1020.2 hPa | 0 mm | - | 791 W/m² | - |
| 1777830249 | 19.44° C | 39% | 1020.3 hPa | 0 mm | - | 794 W/m² | - |
| 1777829948 | 19.44° C | 43% | 1020.4 hPa | 0 mm | - | 790 W/m² | - |
| 1777829645 | 19.44° C | 42% | 1020.4 hPa | 0 mm | - | 783 W/m² | - |
| 1777829342 | 19.44° C | 38% | 1020.4 hPa | 0 mm | - | 786 W/m² | - |
| 1777829039 | 19.44° C | 41% | 1020.6 hPa | 0 mm | - | 784 W/m² | - |
| 1777828735 | 19.44° C | 38% | 1020.6 hPa | 0 mm | - | 783 W/m² | - |
| 1777828432 | 18.89° C | 39% | 1020.8 hPa | 0 mm | - | 777 W/m² | - |
| 1777828130 | 18.33° C | 41% | 1020.8 hPa | 0 mm | - | 771 W/m² | - |
| 1777827826 | 18.89° C | 40% | 1020.9 hPa | 0 mm | - | 769 W/m² | - |
| 1777827523 | 19.44° C | 37% | 1020.9 hPa | 0 mm | - | 763 W/m² | - |
| 1777827221 | 18.89° C | 42% | 1021 hPa | 0 mm | - | 756 W/m² | - |
| 1777826917 | 18.89° C | 38% | 1021 hPa | 0 mm | - | 750 W/m² | - |
| 1777826614 | 18.33° C | 41% | 1021 hPa | 0 mm | - | 746 W/m² | - |
| 1777826310 | 18.89° C | 38% | 1021.4 hPa | 0 mm | - | 738 W/m² | - |
| 1777826008 | 18.89° C | 42% | 1021.4 hPa | 0 mm | - | 731 W/m² | - |
| 1777825705 | 18.33° C | 43% | 1021.4 hPa | 0 mm | - | 719 W/m² | - |
| 1777825403 | 18.33° C | 45% | 1021.4 hPa | 0 mm | - | 716 W/m² | - |
| 1777825099 | 17.78° C | 43% | 1021.5 hPa | 0 mm | - | 710 W/m² | - |
| 1777824795 | 18.33° C | 44% | 1021.6 hPa | 0 mm | - | 701 W/m² | - |
| 1777824493 | 17.22° C | 44% | 1021.8 hPa | 0 mm | - | 691 W/m² | - |
| 1777824188 | 17.78° C | 43% | 1021.7 hPa | 0 mm | - | 684 W/m² | - |
| 1777823884 | 17.78° C | 43% | 1021.5 hPa | 0 mm | - | 671 W/m² | - |
* Rain latest hour (hover to see other rain measurements)
** Current wind speed in m/s (hover to see current wind gust speed)